Weather in Chimishliya

Moldova     46°31′23″N   28°47′04″E
temp.,
°C
wind,
m/s
gust,
m/s
humid.,
%
clouds,
%
prec.,
mm/h
press.,
hPa
HPBL,
m
11 may, tue
tue1100:00+10ssw37620 0.0 1022127
03:00+9wnw22600 0.0 102210
06:00+8nnw22620 0.0 102115
09:00+14nne34545 0.0 1021466
12:00+18nne33405 0.0 10201384
15:00+20n32345 0.0 10181464
18:00+20nne33398 0.0 10161404
21:00+16n22605 0.0 101611
12 may, wed
wed1200:00+14nne227717 0.0 101520
03:00+14ene2587100 0.1 1013142
06:00+13e3590100 0.1 1013281
09:00+11e6971100 0.2 1014422
12:00+11e5766100 0.0 1014492
15:00+13ese4560100 0.0 1013575
18:00+12ese2581100 0.9 1012238
21:00+11ese2582100 1.1 1012209
13 may, thu
thu1300:00+11se388272 0.0 1012328
03:00+9se378698 0.0 1011159
06:00+8ese398698 0.0 1010212
09:00+13sse6976100 0.0 1010679
12:00+13se61084100 1.9 1010624
15:00+15se61074100 2.0 1008973
18:00+18sse71052100 0.0 10071463
21:00+14se6116780 0.0 1008389
14 may, fri
fri1400:00+10sse39843 0.0 1008183
03:00+10s3691100 0.0 1008119
06:00+10s3694100 0.0 1008120
09:00+13sse1290100 0.7 100999
12:00+17ese337699 0.9 1009611
15:00+19sse457099 2.9 1009848
18:00+19ssw4568100 2.1 1008951
21:00+15s458017 3.3 100976
15 may, sat
sat1500:00+13ssw23855 0.6 100937
03:00+12nw22898 0.6 101013
06:00+12nw228822 0.0 101117
09:00+17n457386 0.0 1013475
12:00+20nne215353 0.0 10131366
15:00+22sse1243100 0.1 10122108
18:00+21s1251100 0.0 10121148
21:00+16e477494 0.0 1012142